Dothan, AL

12:52 PM CST on December 08, 2016 (GMT -0600)
Dothan Regional

Weather History for KDHN - May, 2014

Change the Weather History Date:

Monday, May 19, 2014

  Actual Average Record
Temperature  
Mean Temperature 73 °F 75 °F  
Max Temperature 86 °F 87 °F 97 °F (1937)
Min Temperature 60 °F 64 °F 51 °F (1945)
Cooling Degree Days 8 10  
Month to date cooling degree days 122 154  
Year to date cooling degree days 228 275  
Growing Degree Days 24 (Base 50)    
Moisture  
Dew Point 59 °F    
Average Humidity 65    
Maximum Humidity 93    
Minimum Humidity 31    
Precipitation  
Precipitation 0.00 in 0.10 in 1.09 in (1958)
Month to date precipitation 3.08 1.71  
Year to date precipitation 29.46 20.51  
Sea Level Pressure  
Sea Level Pressure 30.20 in    
Wind  
Wind Speed 3 mph (ENE)    
Max Wind Speed 7 mph    
Max Gust Speed -    
Visibility 10 miles    
Events      
T = Trace of Precipitation, MM = Missing Value Source: NWS Daily Summary

Daily Weather History Graph

Daily Weather History Graph

Search for Another Location

Airport or City:

Trip Planner

Search our weather history database for the weather conditions in past years. The results will help you decide how hot, cold, wet, or windy it might be!

Date:

Astronomy

May. 19, 2014 Rise Set
Actual Time 5:43 AM CDT 7:33 PM CDT
Civil Twilight 5:16 AM CDT 8:00 PM CDT
Nautical Twilight 4:44 AM CDT 8:32 PM CDT
Astronomical Twilight 4:09 AM CDT 9:07 PM CDT
Moon No Moon Rise 10:34 AM CDT (5/19)
Length of Visible Light 14h 43m
Length of Day
13h 50m
Waning Gibbous, 71% of the Moon is Illuminated
May 19
Waning Gibbous
May 21
Last Quarter
May 28
New
Jun 5
First Quarter
Jun 12
Full

Hourly Weather History & Observations

Time (CDT) Temp. Heat Index Dew Point Humidity Pressure Visibility Wind Dir Wind Speed Gust Speed Precip Events Conditions
12:53 AM 64.0 °F - 60.1 °F 87% 30.19 in 10.0 mi NE 4.6 mph - N/A   Clear
1:53 AM 64.0 °F - 60.1 °F 87% 30.18 in 10.0 mi ENE 3.5 mph - N/A   Clear
2:53 AM 62.1 °F - 60.1 °F 93% 30.18 in 10.0 mi Calm Calm - N/A   Clear
3:53 AM 61.0 °F - 59.0 °F 93% 30.20 in 8.0 mi NE 4.6 mph - N/A   Clear
4:53 AM 61.0 °F - 59.0 °F 93% 30.20 in 8.0 mi Calm Calm - N/A   Clear
5:53 AM 61.0 °F - 59.0 °F 93% 30.21 in 6.0 mi Calm Calm - N/A   Clear
6:53 AM 62.1 °F - 60.1 °F 93% 30.23 in 8.0 mi ENE 3.5 mph - N/A   Clear
9:53 AM 75.0 °F - 62.1 °F 64% 30.25 in 10.0 mi Variable 5.8 mph - N/A   Clear
10:53 AM 77.0 °F - 61.0 °F 58% 30.24 in 10.0 mi Calm Calm - N/A   Clear
11:53 AM 81.0 °F 81.3 °F 59.0 °F 47% 30.23 in 10.0 mi Variable 3.5 mph - N/A   Scattered Clouds
1:53 PM 84.0 °F 83.0 °F 55.9 °F 38% 30.21 in 10.0 mi Variable 4.6 mph - N/A   Mostly Cloudy
2:53 PM 86.0 °F 84.7 °F 55.9 °F 36% 30.19 in 10.0 mi North 6.9 mph - N/A   Clear
3:53 PM 84.9 °F - 52.0 °F 32% 30.17 in 10.0 mi South 3.5 mph - N/A   Partly Cloudy
4:53 PM 84.9 °F - 51.1 °F 31% 30.17 in 10.0 mi Calm Calm - N/A   Clear
5:53 PM 84.9 °F 83.2 °F 53.1 °F 33% 30.16 in 10.0 mi Variable 3.5 mph - N/A   Clear
6:53 PM 81.0 °F 81.1 °F 57.9 °F 45% 30.17 in 10.0 mi ENE 4.6 mph - N/A   Mostly Cloudy
7:53 PM 75.9 °F - 63.0 °F 64% 30.18 in 10.0 mi NE 3.5 mph - N/A   Clear
8:53 PM 73.9 °F - 63.0 °F 68% 30.19 in 10.0 mi East 3.5 mph - N/A   Partly Cloudy
9:53 PM 72.0 °F - 59.0 °F 64% 30.20 in 10.0 mi Calm Calm - N/A   Clear
10:53 PM 72.0 °F - 61.0 °F 68% 30.20 in 10.0 mi East 4.6 mph - N/A   Clear
11:53 PM 68.0 °F - 61.0 °F 78% 30.21 in 10.0 mi SSE 3.5 mph - N/A   Partly Cloudy